• en France
  • Liste des pays
  • À 7 jours
  • Température de l'eau
  • Carte satellitaire
  • Carte météo
  • Widgets météo
  • user-avatar
    Se connecter

    Météo par heure à Erd

    Ce jour, 16 Octobre, Mardi

    Heure Température Précipitation Vent Pression Humidité
    00:00 +14°C° 0 mm 2 m/s 756 mmHg 41%
    01:00 +14°C° 0 mm 2 m/s 757 mmHg 42%
    02:00 +13°C° 0 mm 2 m/s 756 mmHg 43%
    03:00 +13°C° 0 mm 2 m/s 756 mmHg 44%
    04:00 +13°C° 0 mm 2 m/s 756 mmHg 46%
    05:00 +13°C° 0 mm 2 m/s 756 mmHg 46%
    06:00 +13°C° 0 mm 2 m/s 757 mmHg 46%
    07:00 +13°C° 0 mm 2 m/s 757 mmHg 46%
    08:00 +14°C° 0 mm 3 m/s 757 mmHg 42%
    09:00 +17°C° 0 mm 3 m/s 757 mmHg 38%
    10:00 +19°C° 0 mm 4 m/s 757 mmHg 34%
    11:00 +20°C° 0 mm 4 m/s 757 mmHg 32%
    12:00 +22°C° 0 mm 4 m/s 757 mmHg 31%
    13:00 +23°C° 0 mm 4 m/s 757 mmHg 30%
    14:00 +22°C° 0 mm 3 m/s 756 mmHg 31%
    15:00 +23°C° 0 mm 2 m/s 756 mmHg 33%
    16:00 +23°C° 0 mm 2 m/s 756 mmHg 34%
    17:00 +20°C° 0 mm 2 m/s 756 mmHg 36%
    18:00 +19°C° 0 mm 2 m/s 756 mmHg 37%
    19:00 +18°C° 0 mm 2 m/s 756 mmHg 39%
    20:00 +18°C° 0 mm 2 m/s 756 mmHg 40%
    21:00 +17°C° 0 mm 2 m/s 756 mmHg 40%
    22:00 +17°C° 0 mm 2 m/s 756 mmHg 41%
    23:00 +16°C° 0 mm 2 m/s 756 mmHg 41%

    Demain, 17 Octobre, Mercredi

    Heure Température Précipitation Vent Pression Humidité
    00:00 +16°C° 0 mm 2 m/s 756 mmHg 42%
    01:00 +15°C° 0 mm 2 m/s 756 mmHg 42%
    02:00 +15°C° 0 mm 2 m/s 756 mmHg 43%
    03:00 +14°C° 0 mm 2 m/s 756 mmHg 43%
    04:00 +14°C° 0 mm 2 m/s 756 mmHg 44%
    05:00 +14°C° 0 mm 2 m/s 756 mmHg 44%
    06:00 +14°C° 0 mm 2 m/s 756 mmHg 45%
    07:00 +14°C° 0 mm 2 m/s 756 mmHg 45%
    08:00 +16°C° 0 mm 2 m/s 756 mmHg 40%
    09:00 +18°C° 0 mm 2 m/s 756 mmHg 36%
    10:00 +20°C° 0 mm 2 m/s 756 mmHg 31%
    11:00 +21°C° 0 mm 3 m/s 756 mmHg 29%
    12:00 +22°C° 0 mm 3 m/s 755 mmHg 27%
    13:00 +24°C° 0 mm 3 m/s 755 mmHg 24%
    14:00 +24°C° 0 mm 2 m/s 755 mmHg 26%
    15:00 +23°C° 0 mm 2 m/s 754 mmHg 27%
    16:00 +23°C° 0 mm 2 m/s 754 mmHg 29%
    17:00 +20°C° 0 mm 2 m/s 754 mmHg 31%
    18:00 +19°C° 0 mm 2 m/s 754 mmHg 33%
    19:00 +17°C° 0 mm 2 m/s 754 mmHg 35%
    20:00 +17°C° 0 mm 2 m/s 754 mmHg 36%
    21:00 +16°C° 0 mm 2 m/s 754 mmHg 37%
    22:00 +16°C° 0 mm 1 m/s 754 mmHg 38%
    23:00 +15°C° 0 mm 1 m/s 754 mmHg 39%

    Après-demain, 18 Octobre, Jeudi

    Heure Température Précipitation Vent Pression Humidité
    00:00 +15°C° 0 mm 1 m/s 754 mmHg 41%
    01:00 +14°C° 0 mm 1 m/s 754 mmHg 42%
    02:00 +14°C° 0 mm 1 m/s 754 mmHg 43%
    03:00 +14°C° 0 mm 1 m/s 754 mmHg 45%
    04:00 +13°C° 0 mm 1 m/s 754 mmHg 46%
    05:00 +13°C° 0 mm 1 m/s 754 mmHg 46%
    06:00 +14°C° 0 mm 1 m/s 754 mmHg 47%
    07:00 +14°C° 0 mm 1 m/s 754 mmHg 47%
    08:00 +16°C° 0 mm 1 m/s 754 mmHg 44%
    09:00 +19°C° 0 mm 1 m/s 754 mmHg 40%
    10:00 +21°C° 0 mm 1 m/s 754 mmHg 37%
    11:00 +22°C° 0 mm 1 m/s 754 mmHg 37%
    12:00 +23°C° 0 mm 1 m/s 754 mmHg 37%
    13:00 +24°C° 0 mm 1 m/s 753 mmHg 37%
    14:00 +23°C° 0 mm 1 m/s 753 mmHg 38%
    15:00 +23°C° 0 mm 1 m/s 753 mmHg 40%
    16:00 +23°C° 0 mm 1 m/s 753 mmHg 41%
    17:00 +22°C° 0 mm 1 m/s 753 mmHg 42%
    18:00 +20°C° 0 mm 2 m/s 753 mmHg 43%
    19:00 +19°C° 0 mm 2 m/s 753 mmHg 45%
    20:00 +19°C° 0 mm 1 m/s 753 mmHg 45%
    21:00 +19°C° 0 mm 1 m/s 754 mmHg 44%
    22:00 +19°C° 0 mm 1 m/s 754 mmHg 44%
    23:00 +19°C° 0 mm 1 m/s 754 mmHg 45%

    19 Octobre, Vendredi

    Heure Température Précipitation Vent Pression Humidité
    00:00 +18°C° 0 mm 1 m/s 754 mmHg 45%
    01:00 +18°C° 0 mm 1 m/s 754 mmHg 45%
    02:00 +18°C° 0 mm 1 m/s 754 mmHg 47%
    03:00 +18°C° 0 mm 1 m/s 754 mmHg 48%
    04:00 +16°C° 0 mm 1 m/s 754 mmHg 49%
    05:00 +16°C° 0 mm 1 m/s 754 mmHg 49%
    06:00 +16°C° 0 mm 1 m/s 754 mmHg 50%
    07:00 +16°C° 0 mm 1 m/s 754 mmHg 51%
    08:00 +18°C° 0 mm 1 m/s 754 mmHg 49%
    09:00 +19°C° 0 mm 1 m/s 755 mmHg 47%
    10:00 +20°C° 0 mm 1 m/s 755 mmHg 45%
    11:00 +20°C° 0.1 mm 1 m/s 755 mmHg 47%
    12:00 +19°C° 0.1 mm 2 m/s 754 mmHg 48%
    13:00 +19°C° 0.1 mm 2 m/s 754 mmHg 50%
    14:00 +19°C° 0.1 mm 2 m/s 754 mmHg 53%
    15:00 +19°C° 0.1 mm 2 m/s 754 mmHg 56%
    16:00 +18°C° 0.1 mm 2 m/s 754 mmHg 59%
    17:00 +17°C° 0.1 mm 2 m/s 754 mmHg 63%
    18:00 +17°C° 0.1 mm 2 m/s 754 mmHg 66%
    19:00 +16°C° 0.1 mm 1 m/s 755 mmHg 69%
    20:00 +15°C° 0 mm 1 m/s 755 mmHg 70%
    21:00 +15°C° 0 mm 1 m/s 755 mmHg 72%
    22:00 +14°C° 0 mm 1 m/s 755 mmHg 73%
    23:00 +14°C° 0 mm 1 m/s 755 mmHg 75%

    20 Octobre, Samedi

    Heure Température Précipitation Vent Pression Humidité
    00:00 +14°C° 0 mm 1 m/s 755 mmHg 77%
    01:00 +13°C° 0 mm 2 m/s 755 mmHg 79%
    02:00 +13°C° 0 mm 2 m/s 756 mmHg 82%
    03:00 +12°C° 0 mm 2 m/s 756 mmHg 84%
    04:00 +12°C° 0 mm 2 m/s 756 mmHg 86%
    05:00 +12°C° 0 mm 2 m/s 756 mmHg 86%
    06:00 +12°C° 0 mm 2 m/s 756 mmHg 87%
    07:00 +12°C° 0 mm 2 m/s 756 mmHg 87%
    08:00 +14°C° 0 mm 2 m/s 757 mmHg 78%
    09:00 +16°C° 0 mm 2 m/s 757 mmHg 70%
    10:00 +18°C° 0 mm 2 m/s 757 mmHg 61%
    11:00 +19°C° 0 mm 2 m/s 757 mmHg 57%
    12:00 +20°C° 0 mm 2 m/s 757 mmHg 52%
    13:00 +21°C° 0 mm 3 m/s 757 mmHg 48%
    14:00 +20°C° 0 mm 3 m/s 757 mmHg 49%
    15:00 +20°C° 0 mm 2 m/s 757 mmHg 49%
    16:00 +20°C° 0 mm 2 m/s 757 mmHg 50%
    17:00 +18°C° 0 mm 2 m/s 757 mmHg 55%
    18:00 +17°C° 0 mm 2 m/s 757 mmHg 60%
    19:00 +16°C° 0 mm 2 m/s 758 mmHg 65%
    20:00 +15°C° 0 mm 2 m/s 758 mmHg 67%
    21:00 +15°C° 0 mm 2 m/s 758 mmHg 69%
    22:00 +14°C° 0 mm 2 m/s 758 mmHg 72%
    23:00 +14°C° 0 mm 2 m/s 759 mmHg 73%

    21 Octobre, Dimanche

    Heure Température Précipitation Vent Pression Humidité
    00:00 +14°C° 0 mm 2 m/s 759 mmHg 74%
    01:00 +14°C° 0 mm 2 m/s 759 mmHg 75%
    02:00 +13°C° 0.1 mm 2 m/s 759 mmHg 76%
    03:00 +13°C° 0.1 mm 1 m/s 759 mmHg 77%
    04:00 +13°C° 0.1 mm 1 m/s 759 mmHg 77%
    05:00 +13°C° 0.2 mm 1 m/s 759 mmHg 78%
    06:00 +13°C° 0.2 mm 1 m/s 760 mmHg 80%
    07:00 +13°C° 0.2 mm 1 m/s 760 mmHg 81%
    08:00 +14°C° 0.2 mm 2 m/s 760 mmHg 77%
    09:00 +15°C° 0.2 mm 2 m/s 760 mmHg 73%
    10:00 +15°C° 0.2 mm 2 m/s 761 mmHg 70%
    11:00 +16°C° 0 mm 3 m/s 760 mmHg 66%
    12:00 +17°C° 0 mm 3 m/s 760 mmHg 62%
    13:00 +18°C° 0 mm 3 m/s 760 mmHg 58%
    14:00 +17°C° 0 mm 3 m/s 760 mmHg 59%
    15:00 +17°C° 0 mm 2 m/s 759 mmHg 59%
    16:00 +17°C° 0 mm 2 m/s 759 mmHg 60%
    17:00 +16°C° 0 mm 2 m/s 759 mmHg 63%
    18:00 +15°C° 0 mm 2 m/s 760 mmHg 67%
    19:00 +14°C° 0 mm 1 m/s 760 mmHg 70%
    20:00 +13°C° 0 mm 1 m/s 760 mmHg 70%
    21:00 +13°C° 0 mm 1 m/s 760 mmHg 70%
    22:00 +12°C° 0 mm 1 m/s 760 mmHg 70%
    23:00 +12°C° 0 mm 1 m/s 760 mmHg 69%
    Voir plus